Regional Weather Roundup
Issued by NWS Sioux Falls, SD

Home | Current Version | Previous Version | Text Only | Print | Product List | Glossary On
Versions: 1 2 3 4 5 6 7 8 9 10 11 12 13 14 15 16 17 18 19 20 21 22 23 24 25 26 27 28 29 30 31 32 33 34 35 36 37 38 39 40 41 42 43 44 45 46 47 48 49 50
000
ASUS43 KFSD 230302
RWRFSD

WEATHER ROUNDUP FOR SE SOUTH DAKOTA/SW MINNESOTA/NW IOWA
NATIONAL WEATHER SERVICE SIOUX FALLS SD
900 PM CST MON DEC 22 2014

NOTE: "FAIR" INDICATES FEW OR NO CLOUDS BELOW 12,000 FEET WITH NO
SIGNIFICANT WEATHER AND OR OBSTRUCTIONS TO VISIBILITY.


SDZ038>040-050-052>070-230400-
SOUTHEAST SOUTH DAKOTA

CITY           SKY/WX    TMP DP  RH WIND       PRES   REMARKS
CHAMBERLAIN    NOT AVBL
HURON          FOG       32  32 100 NW5       29.50R VSB 1/4 WCI  27
MADISON        FOG       34  34 100 E6        29.47R VSB 1/2 WCI  29
MITCHELL         N/A     34  33  96 MISG      29.51R
SIOUX FALLS    LGT RAIN  37  35  92 E12       29.47R
WINNER         CLOUDY    31  27  85 NW23G31   29.54S WCI  18
YANKTON        MOCLDY    36  32  87 NW9       29.49S
$$

MNZ071-072-080-081-089-090-097-098-230400-
SOUTHWEST MINNESOTA

CITY           SKY/WX    TMP DP  RH WIND       PRES   REMARKS
FAIRMONT       CLOUDY    34  30  86 E10       29.52S WCI  26
JACKSON        LGT SNOW  34  32  93 E8        29.51S WCI  27
LUVERNE        LGT RAIN  36  34  93 E9        29.49R
MARSHALL       CLOUDY    34  30  86 E12       29.54S WCI  25
MONTEVIDEO     DRIZZLE   34  34 100 SE9       29.58R WCI  26
PIPESTONE      LGT RAIN  34  34 100 SE9       29.48R WCI  26
REDWOOD FALLS  MIX PCPN  35  34  96 E9        29.56R FOG     WCI  28
TRACY          LGT SNOW  34  33  97 E9        29.53S WCI  26
WINDOM         LGT SNOW  34  34 100 E7        29.52S WCI  28
WORTHINGTON    CLOUDY    34 -15  12 E10       29.50S WCI  26
$$

IAZ001>003-012>014-020>022-031-032-NEZ013-014-SDZ071-230400-
NORTHWEST IOWA

CITY           SKY/WX    TMP DP  RH WIND       PRES   REMARKS
DENISON        CLOUDY    39  39 100 E7        29.41F FOG
ESTHERVILLE    MIX PCPN  33  33 100 E9        29.50S FOG     WCI  25
SIOUX CITY     LGT RAIN  38  36  92 NW10      29.46R
SPENCER        LGT RAIN  35  33  92 E9        29.48S FOG     WCI  28
$$

ABBREVIATIONS USED IN REMARKS
   TC - TEMPERATURE IN CELSIUS
  WCI - WIND CHILL INDEX
   HX - HEAT INDEX
  VSB - VISIBILITY



USA.gov is the U.S. government's official web portal to all federal, state and local government web resources and services.